[[{"header":{"parameterUnit":"m.s-1","parameterCategory":1,"la1":30.2991,"la2":30.254,"lo1":-89.0895,"lo2":-89.0444,"dy":0.0017,"dx":0.0017,"nx":28,"ny":28,"refTime":"2024-07-13T21:00:00:Z","depth":0,"parameterNumber":2,"parameterNumberName":"U-component_of_WINDS"},"data":[0,0,0,0,0,0,0,0,0,0,0,0,0,0,0,0,0,0,0,0,0,0,0,0,0,0,0,0,0,0,0,0,0,0,0,0,0,0,0,0,0,0,0,0,0,0,0,0,0,0,0,0,0,0,0,0,0,0,3.0565,3.0565,0,3.0629,3.063,3.0631,3.0548,3.0545,3.0542,3.0539,3.0607,3.0612,3.0616,0,0,0,0,0,0,0,0,0,0,0,0,0,3.0369,3.0373,3.0565,3.0565,3.0566,3.0629,3.063,3.0631,3.0548,3.0545,3.0541,3.0537,3.0606,3.0611,3.0617,0,0,0,0,0,0,0,0,0,0,0,0,0,3.0446,3.0375,3.0564,3.0532,3.053,3.0629,3.063,3.0631,3.0549,3.0544,3.054,3.0536,3.0604,3.061,3.0617,3.0751,0,0,3.0639,3.0642,0,0,0,0,0,0,0,0,3.0442,3.0454,3.0536,3.0535,3.0532,3.0576,3.0586,3.0672,3.055,3.0542,3.0539,3.0533,3.06,3.0607,3.063,3.0755,3.0758,3.0639,3.0644,3.0647,3.0648,0,0,0,0,0,0,0,3.0437,3.045,3.059,3.0538,3.0535,3.0515,3.0521,3.0602,3.0596,3.0542,3.0536,3.0545,3.0599,3.0623,3.0631,3.0759,3.0639,3.0645,3.065,3.0652,3.0995,3.1,0,0,0,0,0,0,3.0435,3.0446,3.0588,3.0592,3.0475,3.0522,3.0529,3.0566,3.0595,3.0595,3.0549,3.0541,3.0613,3.0623,3.0633,3.079,3.0646,3.0653,3.0657,3.099,3.0996,3.1001,0,0,0,0,0,0,3.0431,3.0449,3.0586,3.0518,3.0534,3.053,3.0573,3.057,3.0595,3.06,3.0598,3.0575,3.061,3.0623,3.0722,3.0791,3.0656,3.0662,3.0984,3.0992,3.0999,3.1107,0,0,0,0,0,0,3.0426,3.0448,3.0499,3.0519,3.0538,3.0674,3.0578,3.0575,3.0607,3.0597,3.0624,3.0624,3.0608,3.0712,3.0729,3.0798,3.0668,3.0978,3.0988,3.0996,3.1097,3.1117,3.1134,0,0,0,0,0,3.0419,3.0527,3.0502,3.0519,3.0601,3.0678,3.0688,3.0667,3.0613,3.0664,3.0667,3.0623,3.0781,3.0723,3.0741,3.0814,3.0973,3.0985,3.0996,3.1089,3.1113,3.1134,0,0,0,0,0,0,3.0516,3.053,3.0501,3.0619,3.0648,3.0664,3.0728,3.0693,3.0739,3.0728,3.0699,3.0706,3.0812,3.0823,3.0757,3.0944,3.0868,3.0884,3.0933,3.0956,3.0974,3.0969,3.0674,0,0,0,0,0,3.0551,3.0612,3.0621,3.0724,3.074,3.0732,3.0764,3.0745,3.0774,3.0786,3.0796,3.0826,3.0882,3.092,3.0972,3.1098,3.1102,3.1157,3.1176,3.1191,3.1205,3.1271,3.1295,3.1038,3.1037,3.1037,0,0,3.0624,3.0639,3.0679,3.0744,3.0764,3.0827,3.0742,3.0814,3.0861,3.0797,3.089,3.0899,3.0931,3.1044,3.1094,3.1056,3.1276,3.1205,3.1217,3.1222,3.1284,3.1309,3.133,3.1045,3.1044,3.1043,0,0,3.0789,3.0807,3.0894,3.0916,3.0946,3.094,3.0961,3.0982,3.0985,3.1078,3.1031,3.1086,3.1184,3.1208,3.1233,3.1406,3.1367,3.1424,3.152,3.1585,3.1605,3.1623,3.1683,3.1706,3.1437,3.1437,3.1437,0,3.0876,3.097,3.0944,3.1018,3.1047,3.0991,3.1078,3.1101,3.1148,3.1169,3.1126,3.1246,3.1264,3.138,3.1422,3.1445,3.1467,3.142,3.1604,3.1622,3.1638,3.1695,3.1718,3.1444,3.1443,3.1442,3.1442,0,3.1075,3.114,3.1207,3.1252,3.1289,3.137,3.1355,3.1396,3.1373,3.1371,3.1466,3.1485,3.1539,3.1565,3.1544,3.1679,3.1654,3.1609,3.1532,3.167,3.1723,3.1745,3.1453,3.1451,3.1449,3.1447,0,0,3.1303,3.1331,3.1356,3.1375,3.1405,3.1455,3.1533,3.1585,3.1619,3.1653,3.1717,3.18,3.1757,3.1786,3.1767,3.1824,3.1958,3.1771,3.1771,3.1804,3.2106,3.214,3.2165,3.1932,3.1937,3.194,3.2103,0,3.1468,3.1601,3.1579,3.1709,3.1768,3.1715,3.1783,3.1808,3.1808,3.1859,3.1859,3.1917,3.1857,3.1873,3.1928,3.193,3.2018,3.1918,3.1991,3.1994,3.1984,3.2193,3.223,3.2383,3.2124,3.2127,3.213,0,3.1677,3.1717,3.1853,3.1871,3.1895,3.1956,3.2001,3.205,3.2077,3.2073,3.2104,3.2074,3.2151,3.2074,3.2179,3.2112,3.214,3.2146,3.2151,3.2157,3.207,3.2204,3.2431,3.2454,3.2162,3.216,3.2157,0,3.1829,3.1917,3.2008,3.2027,3.2051,3.2094,3.2107,3.2129,3.2161,3.22,3.2221,3.2269,3.2296,3.2334,3.2318,3.2263,3.2426,3.2347,3.2424,3.2425,3.2461,3.2458,3.2695,3.2481,3.2481,3.248,3.248,0,3.2014,3.2099,3.2077,3.2133,3.2226,3.2199,3.2292,3.2298,3.2318,3.2374,3.2332,3.2386,3.2361,3.2414,3.2402,3.249,3.2503,3.2501,3.2497,3.2505,3.2505,3.2523,3.2511,3.2486,3.2485,3.2484,3.2483,0,3.2199,3.2188,3.2284,3.2298,3.2304,3.2371,3.2383,3.2436,3.2432,3.2504,3.2519,3.2514,3.2573,3.256,3.2626,3.2617,3.2728,3.2711,3.2719,3.2714,3.2791,3.2784,3.3047,3.308,3.2846,3.2848,3.285,0,3.2318,3.2382,3.2402,3.2436,3.2451,3.2507,3.2539,3.2515,3.255,3.2585,3.2633,3.2688,3.2731,3.2827,3.2829,3.2879,3.2862,3.2951,3.2869,3.2874,3.2862,3.2858,3.2863,3.2967,3.2969,3.2972,3.2973,0,3.2529,3.252,3.2567,3.2613,3.2652,3.2686,3.2717,3.2748,3.2726,3.2768,3.2827,3.286,3.2925,3.298,3.3026,3.3038,3.3002,3.2999,3.3019,3.3027,3.3029,3.3028,3.2762,3.2993,3.2991,3.299,3.2988,3.2988,3.2684,3.2737,3.2759,3.2813,3.2833,3.2862,3.2912,3.2913,3.2962,3.3013,3.2996,3.3063,3.3087,3.3144,3.3162,3.3214,3.3181,3.3211,3.3218,3.3226,3.3234,3.3021,3.3223,3.3222,3.3222,3.3221,3.3221,0,3.2892,3.2903,3.2953,3.2996,3.3038,3.3,3.3031,3.3069,3.3128,3.3154,3.3196,3.3263,3.3316,3.3321,3.3371,3.3411,3.3396,3.3425,3.3421,3.3425,3.3262,3.3239,3.3436,3.3436,3.3436,3.3436,3.3436,3.3436,3.3005,3.3093,3.3086,3.3183,3.3193,3.3258,3.3279,3.3305,3.3325,3.3402,3.3445,3.3447,3.3464,3.3514,3.3561,3.3561,3.3581,3.3616,3.361,3.3458,3.3436,3.3416,3.3394,3.3621,3.3621,3.3768,3.3769,3.377]},{"header":{"parameterUnit":"m.s-1","parameterCategory":1,"la1":30.2991,"la2":30.254,"lo1":-89.0895,"lo2":-89.0444,"dy":0.0017,"dx":0.0017,"nx":28,"ny":28,"refTime":"2024-07-13T21:00:00:Z","depth":0,"parameterNumber":3,"parameterNumberName":"V-component_of_WINDS"},"data":[0,0,0,0,0,0,0,0,0,0,0,0,0,0,0,0,0,0,0,0,0,0,0,0,0,0,0,0,0,0,0,0,0,0,0,0,0,0,0,0,0,0,0,0,0,0,0,0,0,0,0,0,0,0,0,0,0,0,0.9392,0.9392,0,0.9389,0.9389,0.9389,0.9353,0.9352,0.9351,0.9351,0.9348,0.9349,0.9349,0,0,0,0,0,0,0,0,0,0,0,0,0,0.9367,0.9367,0.9392,0.9392,0.9392,0.9389,0.9389,0.9389,0.9353,0.9352,0.9351,0.935,0.9348,0.9349,0.9349,0,0,0,0,0,0,0,0,0,0,0,0,0,0.9372,0.9368,0.9392,0.9374,0.9372,0.9389,0.9389,0.9389,0.9354,0.9352,0.9351,0.935,0.9347,0.9348,0.935,0.9384,0,0,0.9353,0.9354,0,0,0,0,0,0,0,0,0.9372,0.9373,0.9377,0.9375,0.9374,0.937,0.9379,0.9387,0.9354,0.9361,0.9351,0.9349,0.9356,0.9357,0.9359,0.9384,0.9384,0.9353,0.9354,0.9354,0.9355,0,0,0,0,0,0,0,0.9372,0.9373,0.9391,0.9377,0.9375,0.9366,0.9365,0.9381,0.9366,0.936,0.9358,0.9358,0.9355,0.9358,0.9359,0.9384,0.9353,0.9354,0.9355,0.9355,0.9434,0.9436,0,0,0,0,0,0,0.9374,0.9373,0.9391,0.9391,0.9369,0.9367,0.9367,0.9373,0.9366,0.9364,0.9359,0.9356,0.9357,0.9358,0.9359,0.9397,0.9354,0.9355,0.9356,0.9433,0.9435,0.9436,0,0,0,0,0,0,0.9373,0.9376,0.9391,0.9381,0.9383,0.9369,0.9376,0.9373,0.9376,0.9365,0.9362,0.9364,0.9356,0.9357,0.9377,0.9397,0.9356,0.9357,0.9431,0.9434,0.9435,0.9476,0,0,0,0,0,0,0.9373,0.9376,0.9389,0.9382,0.9383,0.9411,0.9378,0.9374,0.9378,0.9375,0.937,0.9367,0.9355,0.9376,0.9379,0.9398,0.9358,0.943,0.9432,0.9435,0.9473,0.9479,0.9485,0,0,0,0,0,0.9372,0.9401,0.939,0.9392,0.94,0.9412,0.9413,0.9398,0.938,0.9393,0.9385,0.9368,0.9394,0.9378,0.9381,0.9401,0.9428,0.9432,0.9435,0.947,0.9478,0.9484,0,0,0,0,0,0,0.9412,0.94,0.9387,0.9415,0.9415,0.9406,0.9422,0.9407,0.9411,0.9408,0.9389,0.9388,0.9411,0.9408,0.939,0.9433,0.9408,0.9412,0.9434,0.9441,0.9447,0.9448,0.9359,0,0,0,0,0,0.9423,0.9434,0.9424,0.9449,0.9449,0.9436,0.9441,0.9429,0.9428,0.9427,0.9421,0.9421,0.9429,0.9435,0.9442,0.9472,0.947,0.9487,0.9493,0.9497,0.9501,0.9516,0.9523,0.9447,0.9447,0.9447,0,0,0.9448,0.9443,0.9451,0.9457,0.9455,0.9467,0.9436,0.945,0.9458,0.943,0.9448,0.9444,0.9442,0.9467,0.9478,0.9465,0.9521,0.9502,0.9506,0.9506,0.952,0.9527,0.9533,0.9449,0.9448,0.9448,0,0,0.9499,0.9497,0.9517,0.9516,0.9513,0.9503,0.9508,0.9501,0.9497,0.9516,0.9494,0.9503,0.9518,0.9517,0.9519,0.9568,0.9551,0.957,0.9601,0.9616,0.9622,0.9627,0.9644,0.965,0.9574,0.9574,0.9574,0,0.953,0.9547,0.9529,0.9544,0.9547,0.9521,0.9541,0.954,0.954,0.9543,0.9528,0.9545,0.9542,0.9566,0.9578,0.958,0.9585,0.9571,0.9622,0.9627,0.9632,0.9648,0.9654,0.9577,0.9576,0.9576,0.9576,0,0.9585,0.9597,0.9613,0.9613,0.9618,0.9635,0.962,0.9626,0.9613,0.9605,0.9624,0.9619,0.9624,0.9629,0.9617,0.9651,0.9643,0.9626,0.96,0.9642,0.9656,0.9662,0.958,0.9579,0.9578,0.9578,0,0,0.9662,0.9651,0.9657,0.9656,0.9651,0.9659,0.9675,0.9679,0.9685,0.9685,0.9698,0.971,0.9694,0.9695,0.9683,0.9696,0.9733,0.9677,0.9676,0.9687,0.9769,0.9782,0.979,0.9722,0.9723,0.9724,0.9769,0,0.9711,0.9737,0.9721,0.9749,0.9759,0.9734,0.9747,0.9745,0.9737,0.9745,0.9736,0.9745,0.9723,0.9724,0.9735,0.9727,0.975,0.9723,0.9733,0.9734,0.9734,0.9797,0.9811,0.9854,0.9775,0.9776,0.9777,0,0.9771,0.9773,0.9803,0.9794,0.9797,0.981,0.9812,0.9819,0.9816,0.9809,0.981,0.9794,0.9809,0.9783,0.9802,0.9784,0.9787,0.9784,0.9785,0.9786,0.9758,0.9799,0.9867,0.9874,0.9785,0.9785,0.9784,0,0.9824,0.9834,0.9852,0.9853,0.9843,0.9852,0.9849,0.9844,0.9847,0.9849,0.985,0.9854,0.9856,0.9858,0.9843,0.9827,0.9864,0.9838,0.9859,0.9859,0.9868,0.9868,0.9938,0.987,0.987,0.987,0.987,0,0.988,0.9899,0.9876,0.9887,0.9907,0.9888,0.9908,0.9902,0.9898,0.9907,0.9885,0.9895,0.9874,0.9881,0.987,0.9887,0.9888,0.9882,0.9879,0.9884,0.9885,0.9886,0.9883,0.9872,0.9871,0.9871,0.9871,0,0.9942,0.9928,0.9946,0.9935,0.9932,0.9947,0.9938,0.9947,0.9938,0.995,0.9952,0.9936,0.9943,0.9929,0.9934,0.9926,0.995,0.9942,0.9951,0.9948,0.997,0.9968,1.0043,1.0052,0.9979,0.998,0.998,0,0.9979,0.9992,0.9982,0.9987,0.9984,0.9992,0.9994,0.9976,0.9979,0.9976,0.9986,0.9991,0.9994,1.0006,0.9996,0.9999,0.9991,1.0017,0.9991,0.9996,0.9991,0.999,0.9991,1.0022,1.0023,1.0024,1.0024,0,1.0045,1.0037,1.0041,1.0043,1.0047,1.0048,1.0047,1.0052,1.0032,1.0037,1.0043,1.0046,1.005,1.0055,1.0056,1.0052,1.0035,1.0032,1.0037,1.0043,1.0047,1.0045,0.9965,1.0031,1.003,1.003,1.0029,1.0029,1.0095,1.0106,1.01,1.0105,1.0102,1.0102,1.011,1.0101,1.0106,1.0108,1.0096,1.0105,1.01,1.0099,1.0097,1.0103,1.0091,1.0099,1.0101,1.0103,1.0106,1.0046,1.0103,1.0103,1.0103,1.0103,1.0103,0,1.016,1.0154,1.016,1.0159,1.0163,1.0145,1.0143,1.0148,1.0156,1.0152,1.0155,1.0162,1.0167,1.0156,1.0159,1.0166,1.0158,1.0167,1.0166,1.0165,1.0117,1.0112,1.0173,1.0173,1.0173,1.0173,1.0173,1.0173,1.0194,1.021,1.0201,1.0216,1.021,1.0218,1.0218,1.0217,1.0214,1.0223,1.0226,1.0219,1.0212,1.0214,1.0217,1.0214,1.0215,1.0227,1.0221,1.0176,1.0169,1.0163,1.0158,1.0228,1.0228,1.027,1.027,1.027]}]]